TimeMDT,TemperatureF,Dew PointF,Humidity,Sea Level PressureIn,VisibilityMPH,Wind Direction,Wind SpeedMPH,Gust SpeedMPH,PrecipitationIn,Events,Conditions,WindDirDegrees,DateUTC
12:10 AM,50.0,46.4,87,30.24,10.0,Calm,Calm,-,N/A,,Clear,0,2013-08-16 06:10:00
12:30 AM,48.2,42.8,82,30.24,10.0,Calm,Calm,-,N/A,,Clear,0,2013-08-16 06:30:00
12:50 AM,46.4,41.0,81,30.25,10.0,Calm,Calm,-,N/A,,Clear,0,2013-08-16 06:50:00
1:10 AM,44.6,41.0,87,30.25,10.0,Calm,Calm,-,N/A,,Clear,0,2013-08-16 07:10:00
1:30 AM,44.6,39.2,81,30.25,10.0,SSW,3.5,-,N/A,,Clear,210,2013-08-16 07:30:00
1:50 AM,44.6,39.2,81,30.25,10.0,Calm,Calm,-,N/A,,Clear,0,2013-08-16 07:50:00
2:10 AM,41.0,37.4,87,30.25,10.0,Calm,Calm,-,N/A,,Clear,0,2013-08-16 08:10:00
2:30 AM,41.0,35.6,81,30.25,10.0,Calm,Calm,-,N/A,,Clear,0,2013-08-16 08:30:00
2:50 AM,39.2,35.6,87,30.25,10.0,SW,3.5,-,N/A,,Clear,220,2013-08-16 08:50:00
3:10 AM,41.0,35.6,81,30.25,10.0,Calm,Calm,-,N/A,,Clear,0,2013-08-16 09:10:00
3:30 AM,39.2,33.8,81,30.26,10.0,Calm,Calm,-,N/A,,Clear,0,2013-08-16 09:30:00
3:50 AM,37.4,32.0,81,30.26,10.0,Calm,Calm,-,N/A,,Clear,0,2013-08-16 09:50:00
4:10 AM,37.4,37.4,100,30.26,10.0,Calm,Calm,-,N/A,,Clear,0,2013-08-16 10:10:00
4:30 AM,35.6,35.6,100,30.26,10.0,Calm,Calm,-,N/A,,Clear,0,2013-08-16 10:30:00
4:50 AM,35.6,35.6,100,30.26,10.0,Calm,Calm,-,N/A,,Partly Cloudy,0,2013-08-16 10:50:00
5:10 AM,35.6,35.6,100,30.26,10.0,Calm,Calm,-,N/A,,Partly Cloudy,0,2013-08-16 11:10:00
5:30 AM,33.8,33.8,100,30.27,10.0,Calm,Calm,-,N/A,,Clear,0,2013-08-16 11:30:00
5:50 AM,33.8,30.2,87,30.27,10.0,Calm,Calm,-,N/A,,Clear,0,2013-08-16 11:50:00
6:10 AM,32.0,32.0,100,30.27,10.0,Calm,Calm,-,N/A,,Partly Cloudy,0,2013-08-16 12:10:00
6:30 AM,32.0,30.2,93,30.28,10.0,Calm,Calm,-,N/A,,Clear,0,2013-08-16 12:30:00
6:50 AM,32.0,28.4,87,30.28,10.0,Calm,Calm,-,N/A,,Clear,0,2013-08-16 12:50:00
7:10 AM,32.0,28.4,87,30.29,10.0,Calm,Calm,-,N/A,,Clear,0,2013-08-16 13:10:00
7:30 AM,33.8,30.2,87,30.29,10.0,Calm,Calm,-,N/A,,Clear,0,2013-08-16 13:30:00
7:50 AM,37.4,32.0,81,30.30,10.0,Calm,Calm,-,N/A,,Clear,0,2013-08-16 13:50:00
8:10 AM,41.0,37.4,87,30.30,10.0,Calm,Calm,-,N/A,,Clear,0,2013-08-16 14:10:00
8:30 AM,44.6,41.0,87,30.30,10.0,Calm,Calm,-,N/A,,Clear,0,2013-08-16 14:30:00
8:50 AM,48.2,44.6,87,30.30,10.0,Calm,Calm,-,N/A,,Clear,0,2013-08-16 14:50:00
9:10 AM,50.0,46.4,87,30.31,10.0,Calm,Calm,-,N/A,,Clear,0,2013-08-16 15:10:00
9:30 AM,55.4,50.0,82,30.30,10.0,Calm,Calm,-,N/A,,Clear,0,2013-08-16 15:30:00
9:50 AM,57.2,53.6,88,30.30,10.0,Calm,Calm,-,N/A,,Clear,0,2013-08-16 15:50:00
10:10 AM,60.8,55.4,82,30.30,10.0,Calm,Calm,-,N/A,,Clear,0,2013-08-16 16:10:00
10:30 AM,62.6,59.0,88,30.29,10.0,Calm,Calm,-,N/A,,Clear,0,2013-08-16 16:30:00
10:50 AM,66.2,62.6,88,30.29,10.0,Calm,Calm,-,N/A,,Clear,0,2013-08-16 16:50:00
11:10 AM,69.8,64.4,83,30.28,10.0,Calm,Calm,-,N/A,,Clear,0,2013-08-16 17:10:00
11:30 AM,73.4,68.0,83,30.27,10.0,Calm,Calm,-,N/A,,Clear,0,2013-08-16 17:30:00
11:50 AM,75.2,71.6,89,30.27,10.0,SSW,3.5,-,N/A,,Clear,200,2013-08-16 17:50:00
12:10 PM,80.6,75.2,84,30.26,10.0,West,6.9,-,N/A,,Clear,280,2013-08-16 18:10:00
12:30 PM,82.4,77.0,84,30.25,10.0,WSW,5.8,-,N/A,,Clear,240,2013-08-16 18:30:00
12:50 PM,84.2,78.8,84,30.24,10.0,SSW,15.0,24.2,N/A,,Clear,210,2013-08-16 18:50:00
1:10 PM,84.2,80.6,89,30.24,10.0,SSW,11.5,21.9,N/A,,Clear,210,2013-08-16 19:10:00
1:30 PM,86.0,80.6,84,30.23,10.0,SSW,18.4,26.5,N/A,,Clear,210,2013-08-16 19:30:00
1:50 PM,86.0,80.6,84,30.23,10.0,SSW,19.6,26.5,N/A,,Clear,210,2013-08-16 19:50:00
2:10 PM,86.0,80.6,84,30.23,10.0,SSW,11.5,31.1,N/A,,Clear,210,2013-08-16 20:10:00
2:30 PM,86.0,80.6,84,30.23,10.0,SSW,15.0,28.8,N/A,,Clear,210,2013-08-16 20:30:00
2:50 PM,86.0,80.6,84,30.23,10.0,WSW,15.0,26.5,N/A,,Clear,250,2013-08-16 20:50:00
3:10 PM,86.0,80.6,84,30.23,10.0,WSW,9.2,28.8,N/A,,Clear,250,2013-08-16 21:10:00
3:30 PM,86.0,80.6,84,30.23,10.0,WSW,12.7,25.3,N/A,,Clear,250,2013-08-16 21:30:00
3:50 PM,86.0,82.4,89,30.22,10.0,WSW,13.8,25.3,N/A,,Clear,250,2013-08-16 21:50:00
4:10 PM,84.2,80.6,89,30.22,10.0,SSW,11.5,27.6,N/A,,Clear,210,2013-08-16 22:10:00
4:30 PM,86.0,80.6,84,30.22,10.0,SW,13.8,24.2,N/A,,Clear,230,2013-08-16 22:30:00
4:50 PM,86.0,82.4,89,30.22,10.0,SW,18.4,27.6,N/A,,Clear,220,2013-08-16 22:50:00
5:10 PM,84.2,80.6,89,30.22,10.0,SW,10.4,24.2,N/A,,Clear,230,2013-08-16 23:10:00
5:30 PM,86.0,80.6,84,30.21,10.0,SW,11.5,19.6,N/A,,Clear,230,2013-08-16 23:30:00
5:50 PM,84.2,80.6,89,30.21,10.0,WSW,16.1,23.0,N/A,,Clear,240,2013-08-16 23:50:00
6:10 PM,84.2,80.6,89,30.21,10.0,SW,15.0,19.6,N/A,,Clear,230,2013-08-17 00:10:00
6:30 PM,84.2,78.8,84,30.21,10.0,SW,15.0,26.5,N/A,,Clear,220,2013-08-17 00:30:00
6:50 PM,84.2,78.8,84,30.21,10.0,SW,11.5,-,N/A,,Clear,220,2013-08-17 00:50:00
7:10 PM,82.4,77.0,84,30.21,10.0,SW,11.5,19.6,N/A,,Clear,220,2013-08-17 01:10:00
7:30 PM,82.4,77.0,84,30.21,10.0,SSW,10.4,-,N/A,,Clear,210,2013-08-17 01:30:00
7:50 PM,80.6,75.2,84,30.21,10.0,SSW,10.4,-,N/A,,Clear,210,2013-08-17 01:50:00
8:10 PM,77.0,71.6,83,30.22,10.0,SSW,8.1,-,N/A,,Clear,210,2013-08-17 02:10:00
8:30 PM,73.4,68.0,83,30.22,10.0,SSW,6.9,-,N/A,,Clear,210,2013-08-17 02:30:00
8:50 PM,71.6,66.2,83,30.22,10.0,South,3.5,-,N/A,,Clear,190,2013-08-17 02:50:00
9:10 PM,68.0,64.4,88,30.23,10.0,SSW,5.8,-,N/A,,Clear,200,2013-08-17 03:10:00
9:30 PM,66.2,62.6,88,30.23,10.0,SSW,8.1,-,N/A,,Clear,210,2013-08-17 03:30:00
9:50 PM,68.0,62.6,83,30.23,10.0,SW,4.6,-,N/A,,Clear,230,2013-08-17 03:50:00
10:10 PM,62.6,57.2,82,30.24,10.0,Calm,Calm,-,N/A,,Clear,0,2013-08-17 04:10:00
10:30 PM,59.0,55.4,88,30.24,10.0,Calm,Calm,-,N/A,,Clear,0,2013-08-17 04:30:00
10:50 PM,57.2,53.6,88,30.24,10.0,NNE,3.5,-,N/A,,Clear,20,2013-08-17 04:50:00
11:10 PM,57.2,51.8,82,30.24,10.0,NE,5.8,-,N/A,,Clear,40,2013-08-17 05:10:00
11:30 PM,59.0,55.4,88,30.23,10.0,SSE,5.8,-,N/A,,Clear,160,2013-08-17 05:30:00
11:50 PM,55.4,50.0,82,30.24,10.0,Calm,Calm,-,N/A,,Clear,0,2013-08-17 05:50:00